London, United Kingdom

1:26 AM GMT on March 25, 2017 (GMT +0000)
London

Weather History for 03772 - October, 2013

Change the Weather History Date:

Thursday, October 17, 2013

  Actual Average Record
Temperature  
Mean Temperature 59 °F -  
Max Temperature 65 °F 53 °F - ()
Min Temperature 51 °F 42 °F - ()
Degree Days  
Heating Degree Days 6    
Growing Degree Days 9 (Base 50)    
Moisture  
Dew Point 53 °F    
Average Humidity 83    
Maximum Humidity 100    
Minimum Humidity 58    
Precipitation  
Precipitation 0.01 in - - ()
Sea Level Pressure  
Sea Level Pressure 29.93 in    
Wind  
Wind Speed 12 mph ()    
Max Wind Speed 17 mph    
Max Gust Speed 29 mph    
Visibility 7.2 miles    
Events Rain    
T = Trace of Precipitation, MM = Missing Value Source: Averaged Metar Reports

Daily Weather History Graph

Daily Weather History Graph

Search for Another Location

Airport or City:

Trip Planner

Search our weather history database for the weather conditions in past years. The results will help you decide how hot, cold, wet, or windy it might be!

Date:

Astronomy

Oct. 17, 2013 Rise Set
Actual Time 7:29 AM BST 6:04 PM BST
Civil Twilight 6:55 AM BST 6:37 PM BST
Nautical Twilight 6:16 AM BST 7:16 PM BST
Astronomical Twilight 5:38 AM BST 7:55 PM BST
Moon 5:15 PM BST (10/17) 5:36 AM BST (10/17)
Length of Visible Light 11h 42m
Length of Day
10h 34m
Waxing Gibbous, 97% of the Moon is Illuminated
Oct 17
Waxing Gibbous
Oct 19
Full
Oct 27
Last Quarter
Nov 3
New
Nov 10
First Quarter

Hourly Weather History & Observations

Time (BST) Temp. Dew Point Humidity Pressure Visibility Wind Dir Wind Speed Gust Speed Precip Events Conditions
12:20 AM 55.4 °F 51.8 °F 88% 29.83 in - SW 17.3 mph - N/A   Clear
12:50 AM 55 °F 51 °F 84% 29.83 in 14 mi SW 16.1 mph - -  
12:50 AM 55.4 °F 51.8 °F 88% 29.83 in - SW 15.0 mph - N/A   Clear
1:20 AM 55.4 °F 51.8 °F 88% 29.83 in 6.2 mi WSW 17.3 mph - N/A   Partly Cloudy
1:50 AM 55.4 °F 51.8 °F 88% 29.83 in - WSW 16.1 mph - N/A   Clear
2:20 AM 55.4 °F 51.8 °F 88% 29.83 in 6.2 mi WSW 15.0 mph - N/A   Unknown
2:50 AM 55.4 °F 51.8 °F 88% 29.86 in 6.2 mi WSW 15.0 mph - N/A   Unknown
3:20 AM 55.4 °F 51.8 °F 88% 29.86 in 6.2 mi SW 13.8 mph - N/A   Unknown
3:50 AM 54 °F 50 °F 83% 29.86 in 14 mi SW 15.0 mph - -  
3:50 AM 53.6 °F 51.8 °F 94% 29.86 in - SW 15.0 mph - N/A   Clear
4:50 AM 53.6 °F 51.8 °F 94% 29.86 in - SW 12.7 mph - N/A   Clear
5:20 AM 53.6 °F 51.8 °F 94% 29.86 in - SW 12.7 mph - N/A   Clear
5:50 AM 55.4 °F 51.8 °F 88% 29.86 in 5.6 mi SW 12.7 mph - N/A   Unknown
6:20 AM 55.4 °F 53.6 °F 94% 29.86 in 6.2 mi WSW 13.8 mph - N/A   Partly Cloudy
6:50 AM 56 °F 52 °F 83% 29.88 in 14 mi WSW 13.8 mph - - Rain Rain
6:50 AM 55.4 °F 53.6 °F 94% 29.86 in 6.2 mi WSW 13.8 mph - N/A   Scattered Clouds
7:20 AM 55.4 °F 53.6 °F 94% 29.89 in 6.2 mi WSW 15.0 mph - N/A   Scattered Clouds
7:50 AM 55.4 °F 53.6 °F 94% 29.89 in 6.2 mi WSW 16.1 mph 28.8 mph N/A   Scattered Clouds
8:20 AM 55.4 °F 53.6 °F 94% 29.89 in 6.2 mi WSW 12.7 mph - N/A   Partly Cloudy
8:50 AM 55.4 °F 53.6 °F 94% 29.92 in 6.2 mi West 10.4 mph - N/A   Partly Cloudy
9:20 AM 57.2 °F 53.6 °F 88% 29.92 in 6.2 mi West 9.2 mph - N/A   Scattered Clouds
9:50 AM 58 °F 53 °F 78% 29.92 in 19 mi West 11.5 mph - -   Partly Cloudy
9:50 AM 57.2 °F 53.6 °F 88% 29.92 in 6.2 mi West 11.5 mph - N/A   Scattered Clouds
10:20 AM 59.0 °F 55.4 °F 88% 29.92 in 6.2 mi West 16.1 mph - N/A   Partly Cloudy
10:50 AM 60.8 °F 55.4 °F 82% 29.95 in 6.2 mi West 15.0 mph - N/A   Partly Cloudy
11:20 AM 60.8 °F 55.4 °F 82% 29.95 in 6.2 mi West 16.1 mph - N/A   Scattered Clouds
11:50 AM 60.8 °F 53.6 °F 77% 29.95 in 6.2 mi West 12.7 mph - N/A   Scattered Clouds
12:20 PM 62.6 °F 53.6 °F 72% 29.95 in 6.2 mi West 16.1 mph - N/A   Scattered Clouds
12:50 PM 65 °F 54 °F 58% 29.95 in 22 mi West 11.5 mph - -   Scattered Clouds
12:50 PM 64.4 °F 53.6 °F 68% 29.95 in 6.2 mi West 13.8 mph - N/A   Scattered Clouds
1:20 PM 62.6 °F 53.6 °F 72% 29.95 in 6.2 mi West 16.1 mph - N/A   Scattered Clouds
1:50 PM 62.6 °F 53.6 °F 72% 29.95 in 6.2 mi West 11.5 mph - N/A   Scattered Clouds
2:20 PM 62.6 °F 53.6 °F 72% 29.95 in 6.2 mi WSW 13.8 mph - N/A   Scattered Clouds
2:50 PM 62.6 °F 55.4 °F 77% 29.95 in 6.2 mi West 13.8 mph - N/A   Partly Cloudy
3:20 PM 62.6 °F 53.6 °F 72% 29.98 in 6.2 mi West 16.1 mph - N/A   Partly Cloudy
3:50 PM 62 °F 52 °F 61% 29.97 in 25 mi West 11.5 mph - -  
3:50 PM 62.6 °F 53.6 °F 72% 29.98 in 6.2 mi West 11.5 mph - N/A   Partly Cloudy
4:20 PM 62.6 °F 53.6 °F 72% 29.98 in 6.2 mi West 10.4 mph - N/A   Partly Cloudy
4:50 PM 62.6 °F 53.6 °F 72% 29.95 in 6.2 mi WSW 10.4 mph - N/A   Partly Cloudy
5:20 PM 62.6 °F 53.6 °F 72% 29.95 in 6.2 mi West 8.1 mph - N/A   Partly Cloudy
5:50 PM 60.8 °F 51.8 °F 72% 29.98 in - West 10.4 mph - N/A   Clear
6:20 PM 59.0 °F 51.8 °F 77% 29.98 in - WSW 9.2 mph - N/A   Clear
6:50 PM 58 °F 49 °F 65% 29.98 in 25 mi West 8.1 mph - -  
6:50 PM 55.4 °F 50.0 °F 82% 29.98 in - West 8.1 mph - N/A   Clear
7:20 PM 55.4 °F 50.0 °F 82% 29.98 in - WSW 9.2 mph - N/A   Clear
7:50 PM 53.6 °F 50.0 °F 88% 29.98 in - WSW 8.1 mph - N/A   Clear
8:20 PM 53.6 °F 50.0 °F 88% 30.01 in - WSW 8.1 mph - N/A   Clear
8:50 PM 55.4 °F 51.8 °F 88% 30.01 in 6.2 mi SW 6.9 mph - N/A   Partly Cloudy
9:20 PM 55.4 °F 51.8 °F 88% 30.01 in 6.2 mi SW 8.1 mph - N/A   Partly Cloudy
9:50 PM 56 °F 52 °F 80% 30.02 in 11 mi SSW 9.2 mph - -  
9:50 PM 53.6 °F 51.8 °F 94% 30.01 in - SW 8.1 mph - N/A   Clear
10:20 PM 55.4 °F 51.8 °F 88% 30.01 in - SW 5.8 mph - N/A   Clear
10:50 PM 55.4 °F 53.6 °F 94% 30.01 in 5.6 mi SSW 6.9 mph - N/A   Unknown
11:20 PM 55.4 °F 53.6 °F 94% 30.01 in 5.0 mi SSW 6.9 mph - N/A   Unknown
11:50 PM 51.8 °F 51.8 °F 100% 30.01 in 4.3 mi Calm Calm - N/A   Unknown